KTXEAGLE7 Weather Reports


Display with metric or nautical units.
time (UTC)temp
F
wind
direction
speed
MPH
gust
MPH
rain 1hr
in
rain 24hr
in
rain mn
in
humidity
%
barometer
mb
20260905050106 78 138 0.0 0.0 0.00 0.01 0.00 96 1013.9
20260905044600 78 138 1.0 3.0 0.00 0.01 0.01 95 1014.0
20260905043057 78 138 0.0 1.0 0.00 0.01 0.01 95 1014.0
20260905041556 78 138 2.0 4.0 0.00 0.01 0.01 95 1014.2
20260905040057 78 138 3.0 4.0 0.00 0.01 0.01 95 1014.2
20260905034608 79 132 1.0 2.0 0.00 0.01 0.01 94 1014.2
20260905033105 79 130 2.0 5.0 0.00 0.01 0.01 93 1014.3
20260905031608 79 144 2.0 4.0 0.00 0.01 0.01 92 1014.2
20260905030053 80 138 4.0 7.0 0.00 0.01 0.01 91 1014.2
20260905024553 80 135 4.0 7.0 0.00 0.01 0.01 91 1014.1
20260905023124 80 126 2.0 6.0 0.00 0.01 0.01 90 1013.9
20260905021552 80 118 2.0 4.0 0.00 0.01 0.01 90 1013.8
20260905020051 81 103 3.0 4.0 0.00 0.01 0.01 89 1013.7
20260905014554 81 132 4.0 8.0 0.00 0.01 0.01 87 1013.3
20260905013048 82 109 4.0 8.0 0.00 0.01 0.01 86 1013.1
20260905011554 83 107 3.0 6.0 0.00 0.01 0.01 87 1012.8
20260905010046 84 105 1.0 2.0 0.00 0.01 0.01 83 1012.7
20260905004544 86 105 0.0 2.0 0.00 0.01 0.01 81 1012.6
20260905003044 86 105 0.0 1.0 0.00 0.01 0.01 79 1012.5
20260905001545 87 105 0.0 2.0 0.00 0.01 0.01 79 1012.6
20260905000053 87 105 2.0 6.0 0.00 0.01 0.01 77 1012.5
20260904234542 87 119 4.0 7.0 0.00 0.01 0.01 78 1012.4
20260904233045 86 103 2.0 4.0 0.00 0.01 0.01 79 1012.3
20260904231539 84 193 0.0 4.0 0.00 0.01 0.01 82 1012.5
20260904230039 84 235 0.0 1.0 0.00 0.01 0.01 83 1012.4
20260904224538 84 202 1.0 4.0 0.00 0.01 0.01 83 1012.7
20260904223037 84 199 2.0 5.0 0.00 0.01 0.01 84 1012.9
20260904221536 85 195 4.0 7.0 0.00 0.01 0.01 81 1012.9
20260904214533 86 154 4.0 9.0 0.00 0.01 0.01 82 1013.1
20260904213036 86 102 6.0 10.0 0.00 0.01 0.01 81 1013.2
20260904211536 88 109 7.0 11.0 0.00 0.01 0.01 80 1013.2
20260904210132 87 89 4.0 7.0 0.00 0.01 0.01 78 1013.2
20260904204535 86 84 6.0 10.0 0.00 0.01 0.01 75 1013.4
20260904203041 85 84 3.0 8.0 0.00 0.01 0.01 83 1013.6
20260904201530 84 98 4.0 8.0 0.00 0.01 0.01 86 1013.5
20260904200036 83 98 4.0 7.0 0.00 0.01 0.01 86 1014.0
20260904194546 83 124 2.0 6.0 0.00 0.04 0.01 86 1014.2
20260904193029 83 111 3.0 7.0 0.00 0.04 0.01 80 1014.4
20260904191538 82 153 4.0 11.0 0.00 0.04 0.01 80 1014.6
20260904190029 83 150 5.0 12.0 0.00 0.04 0.01 81 1014.6
20260904184527 86 143 8.0 12.0 0.00 0.04 0.01 80 1014.6
20260904183027 87 82 9.0 13.0 0.00 0.04 0.01 80 1014.6
20260904181526 88 104 9.0 14.0 0.00 0.04 0.01 78 1014.9
20260904180025 88 84 6.0 10.0 0.00 0.04 0.01 78 1015.1
20260904174554 88 70 6.0 9.0 0.00 0.04 0.01 79 1015.0
20260904173025 87 134 4.0 9.0 0.00 0.04 0.01 76 1015.3
20260904171523 87 169 6.0 10.0 0.00 0.04 0.01 78 1015.2
20260904170023 87 108 3.0 9.0 0.00 0.04 0.01 81 1015.3
20260904164519 86 87 6.0 10.0 0.00 0.04 0.01 83 1015.4
20260904163017 85 148 5.0 8.0 0.00 0.04 0.01 87 1015.4
20260904161515 85 100 3.0 7.0 0.00 0.04 0.01 86 1015.4
20260904160012 84 140 1.0 4.0 0.00 0.04 0.01 87 1015.3
20260904154509 84 171 2.0 5.0 0.00 0.04 0.01 88 1015.1
20260904153124 84 116 0.0 7.0 0.00 0.04 0.01 89 1014.9
20260904151504 83 132 4.0 8.0 0.00 0.04 0.01 91 1015.0
20260904150005 83 140 4.0 8.0 0.00 0.04 0.01 92 1015.0
20260904144559 82 107 3.0 4.0 0.00 0.04 0.01 94 1015.0
20260904143101 81 112 3.0 4.0 0.00 0.04 0.01 96 1014.8
20260904141554 80 127 2.0 4.0 0.00 0.04 0.01 97 1014.6
20260904140052 80 105 2.0 4.0 0.00 0.04 0.01 98 1014.7
20260904134549 80 90 0.0 0.0 0.00 0.04 0.01 99 1014.7
20260904133054 79 90 0.0 0.0 0.00 0.04 0.01 99 1014.6
20260904131545 79 90 0.0 0.0 0.00 0.04 0.01 99 1014.3
20260904130044 79 90 0.0 0.0 0.00 0.04 0.01 99 1014.2
20260904124548 78 90 0.0 0.0 0.00 0.04 0.01 99 1014.2
20260904123104 78 90 0.0 0.0 0.00 0.04 0.01 99 1014.1
20260904121542 78 90 0.0 0.0 0.01 0.04 0.01 99 1014.0
20260904120040 78 90 0.0 2.0 0.01 0.04 0.01 98 1013.7
20260904114540 78 57 0.0 0.0 0.01 0.04 0.01 98 1013.5
20260904113049 79 57 0.0 0.0 0.01 0.04 0.01 98 1013.6
20260904111538 79 57 0.0 0.0 0.00 0.03 0.00 98 1013.6
20260904110042 79 57 0.0 0.0 0.00 0.03 0.00 98 1013.6
20260904104537 79 57 0.0 0.0 0.00 0.03 0.00 98 1013.4
20260904103037 79 57 0.0 0.0 0.00 0.03 0.00 98 1013.3
20260904101536 79 57 0.0 0.0 0.00 0.03 0.00 98 1013.2
20260904100041 79 57 0.0 0.0 0.00 0.03 0.00 98 1013.3
20260904094532 79 57 0.0 0.0 0.00 0.03 0.00 98 1013.3
20260904093041 79 57 0.0 0.0 0.00 0.03 0.00 98 1013.2
20260904091530 79 40 0.0 4.0 0.00 0.03 0.00 98 1013.1
20260904090030 79 65 0.0 0.0 0.00 0.03 0.00 98 1013.1
20260904084529 79 84 0.0 0.0 0.00 0.03 0.00 98 1013.1
20260904083027 79 84 0.0 0.0 0.00 0.03 0.00 98 1013.2
20260904081526 79 84 0.0 0.0 0.00 0.03 0.00 98 1013.2
20260904080025 79 84 0.0 0.0 0.00 0.03 0.00 98 1013.4
20260904074524 79 84 0.0 0.0 0.00 0.03 0.00 98 1013.5
20260904073024 78 84 0.0 0.0 0.00 0.03 0.00 98 1013.5
20260904071523 78 101 0.0 0.0 0.00 0.03 0.00 98 1013.5
20260904070037 79 130 0.0 0.0 0.00 0.03 0.00 98 1013.6
20260904064522 79 130 0.0 0.0 0.00 0.03 0.00 98 1013.7
20260904063022 79 130 0.0 0.0 0.00 0.03 0.00 98 1013.7
20260904061520 78 130 0.0 3.0 0.00 0.03 0.00 98 1013.8
20260904060022 78 130 1.0 4.0 0.00 0.03 0.00 98 1013.5
20260904054529 78 119 0.0 0.0 0.00 0.03 0.00 98 1013.6
20260904053018 78 110 0.0 0.0 0.00 0.03 0.00 97 1013.4
20260904051516 78 110 0.0 0.0 0.00 0.03 0.00 97 1013.3